Capitol Logistics 2293


KSDF
Louisville International Airport-Standiford Field
Louisville, Kentucky, US
KJFK
John F Kennedy International Airport
New York, New York, US

Activity Log

Date Flight Route Aircraft Duration
11/27/2019 CPX2293 FEDRA5 SHIPR HACKS J149 GEFFS Q71 PSB J49 MAGIO J106 LVZ LENDY6 LVZ LENDY6 B763 1h 42m

Route Details

Aircraft Information
Primary: Boeing 747-400BCF
Backup: Boeing 767-300BDSF
Date Restrictions
Between:Nov 16, 2019
Dec 31, 2019
Route Data
Distance: 574nm
Sched. Duration: 1h 36m
Avg. Duration: 1h 42m (+7m)
Times Flown: 1
Recm'd Route: FEDRA5 SHIPR BKW J42 MOL J24 FAK J24 HCM SAWED J121 SIE CAMRN4
Planned Altitude: 33,000ft
Origin Wx: KSDF 200329Z 12004KT 6SM -TSRA BR SCT009 BKN030CB OVC095 18/17 A3008 RMK AO2 LTG DSNT SE AND S RAE21B25 TSB27 OCNL LTGICCC SE TS SE S MOVE P0000 T01780167
Dest. Wx: KJFK 200251Z 13008KT 10SM FEW015 SCT130 BKN250 16/13 A3029 RMK AO2 SLP256 T01560133 $
Notes: SEASONAL FLIGHT | UPS SURGE OPS CONTRACT

Financial History
Total Freight: 123,072lbs
Average Load: 123,072lbs/flt
Fuel Used: 19,878lbs
Avg. Fuel Used: 19,878lbs/flt
Fuel Expense: $16,101
Avg. Fuel Expense: $16,101
Avg. Fuel Cost: $0.81/lbs
Total Gross Income: $232,606
Pilot Pay: $229
Total Expenses: $25,173
Total Revenue: $190,852
Average Revenue: $232,606.08